Location: Albuquerque Trailhead
(34.7934°N, 106.3736°W)
Time: 22:42:27
(UTC+00:00)

FENGYUN 3A - Pass Details

Date: 20 June 2021
Orbit: 824 x 835 km, 98.5° (Epoch: 01 August)

Event Time Altitude Azimuth Distance (km) Brightness Sun altitude
Rises 11:18:23 0° 9° (N) 3,386 7.6 -6.7°
Reaches altitude 10° 11:20:45 10° 7° (N) 2,449 6.8 -6.3°
Maximum altitude 11:26:09 69° 286° (WNW) 892 3.7 -5.4°
Drops below altitude 10° 11:31:31 10° 203° (SSW) 2,438 5.6 -4.5°
Sets 11:33:52 0° 201° (SSW) 3,368 6.3 -4.1°
